TimePDT,TemperatureF,Dew PointF,Humidity,Sea Level PressureIn,VisibilityMPH,Wind Direction,Wind SpeedMPH,Gust SpeedMPH,PrecipitationIn,Events,Conditions,WindDirDegrees,DateUTC
12:52 AM,54.0,37.9,55,29.98,10.0,West,8.1,-,N/A,,Clear,270,2013-04-02 07:52:00
1:52 AM,53.1,39.0,59,29.99,10.0,WSW,3.5,-,N/A,,Clear,240,2013-04-02 08:52:00
2:52 AM,48.0,37.0,66,29.99,10.0,Calm,Calm,-,N/A,,Clear,0,2013-04-02 09:52:00
3:52 AM,48.0,37.0,66,30.01,10.0,Calm,Calm,-,N/A,,Clear,0,2013-04-02 10:52:00
4:52 AM,45.0,36.0,71,30.02,10.0,South,3.5,-,N/A,,Clear,180,2013-04-02 11:52:00
5:52 AM,43.0,35.1,74,30.03,10.0,Calm,Calm,-,N/A,,Clear,0,2013-04-02 12:52:00
6:52 AM,43.0,34.0,71,30.04,10.0,Calm,Calm,-,N/A,,Clear,0,2013-04-02 13:52:00
7:52 AM,48.9,37.9,66,30.05,10.0,SSE,3.5,-,N/A,,Clear,160,2013-04-02 14:52:00
8:52 AM,55.9,37.9,51,30.06,10.0,Calm,Calm,-,N/A,,Clear,0,2013-04-02 15:52:00
9:52 AM,60.1,35.1,39,30.06,10.0,Variable,3.5,-,N/A,,Clear,0,2013-04-02 16:52:00
10:52 AM,64.0,37.0,37,30.06,10.0,Calm,Calm,-,N/A,,Clear,0,2013-04-02 17:52:00
11:52 AM,68.0,35.1,30,30.05,10.0,West,10.4,-,N/A,,Clear,260,2013-04-02 18:52:00
12:52 PM,69.1,35.1,29,30.04,10.0,South,10.4,-,N/A,,Clear,180,2013-04-02 19:52:00
1:52 PM,70.0,34.0,27,30.02,10.0,South,5.8,-,N/A,,Clear,170,2013-04-02 20:52:00
2:52 PM,73.0,34.0,24,30.01,10.0,South,4.6,-,N/A,,Clear,180,2013-04-02 21:52:00
3:52 PM,72.0,35.1,26,29.99,10.0,Calm,Calm,-,N/A,,Clear,0,2013-04-02 22:52:00
4:52 PM,73.0,39.0,29,29.98,10.0,SW,18.4,28.8,N/A,,Clear,220,2013-04-02 23:52:00
5:52 PM,70.0,39.9,33,29.99,10.0,SW,13.8,-,N/A,,Clear,220,2013-04-03 00:52:00
6:48 PM,66.2,39.2,37,29.98,10.0,West,10.4,-,N/A,,Clear,280,2013-04-03 01:48:00
6:52 PM,66.9,39.0,36,29.99,10.0,West,10.4,-,N/A,,Clear,270,2013-04-03 01:52:00
7:52 PM,62.1,39.0,43,29.99,10.0,West,9.2,-,N/A,,Clear,270,2013-04-03 02:52:00
8:52 PM,59.0,39.0,48,30.01,10.0,WSW,5.8,-,N/A,,Clear,240,2013-04-03 03:52:00
9:52 PM,57.0,37.9,49,30.02,10.0,WSW,8.1,-,N/A,,Clear,240,2013-04-03 04:52:00
10:52 PM,54.0,37.9,55,30.02,10.0,West,8.1,-,N/A,,Clear,260,2013-04-03 05:52:00
11:52 PM,53.1,37.9,57,30.02,10.0,West,11.5,-,N/A,,Clear,270,2013-04-03 06:52:00